Location: Furneux Pelham
(51.9333°N, 0.0833°E)
Time: 19:32:13
(UTC+00:00)

Daily predictions for brighter satellites

Satellite Brightness Start Highest point End
(mag) Time Altitude Azimuth Time Altitude Azimuth Time Altitude Azimuth
CZ-4B R/B 3.2 16:23:31 10° SSE 16:28:50 88° ENE 16:34:17 10° NNW
Cosmos 1400 Rocket 3.1 16:25:22 10° S 16:29:22 51° E 16:33:21 10° NNE
Cosmos 1869 Rocket 3.7 16:28:43 10° N 16:33:02 52° ENE 16:37:22 10° SSE
CZ-4B R/B 1.6 16:30:32 10° NNE 16:34:04 80° WNW 16:37:34 10° SSW
NOSS 2-2 (C) 3.4 16:30:31 10° SSW 16:34:08 64° SE 16:38:23 10° NE
NOSS 8 (H) 4.3 16:33:18 10° SSW 16:36:23 62° SE 16:39:34 10° NE
Cosmos 2278 Rocket 2.9 16:33:53 10° NNW 16:38:59 33° NE 16:44:03 10° ESE
YAOGAN 6 4.3 16:37:41 10° E 16:39:22 13° ENE 16:41:02 10° NNE
ISS -3.7 16:36:20 10° W 16:39:42 87° S 16:43:04 10° E
Cosmos 1933 3.4 16:35:41 10° SSW 16:39:42 83° W 16:43:46 10° N
Cosmos 1606 2.7 16:36:55 10° S 16:40:42 89° E 16:44:32 10° N
Cosmos 1689 Rocket 2.1 16:38:11 10° NNE 16:41:14 74° ESE 16:44:16 10° S
RESURS DK-1 4.5 16:41:27 10° ESE 16:42:09 10° E 16:42:50 10° E
IRS-1C Rocket 4.2 16:37:15 10° SE 16:42:23 56° ENE 16:47:33 10° N
FENGYUN 3A 4.3 16:38:07 10° S 16:43:31 64° WSW 16:48:56 10° NNW
Lacrosse 4 Rocket 3.8 16:44:37 10° NNW 16:45:26 10° NNW 16:46:14 10° N
Okean O Rocket 2.1 16:44:26 10° S 16:48:44 65° WSW 16:53:05 10° NNW
Cosmos 2360 Rocket 2.3 16:45:36 10° SSW 16:51:11 65° ESE 16:56:50 10° NE
PSLV R/B 4.3 16:48:30 10° NNE 16:52:33 45° E 16:56:32 10° S
Meteor 1-14 Rocket 4.4 16:46:40 10° NNW 16:52:41 87° ENE 16:58:33 10° SSE
Cosmos 1048 Rocket 4.1 16:48:12 10° SSW 16:53:35 84° ESE 16:59:01 10° NNE
Cosmos 2369 Rocket 4.1 16:51:57 10° N 16:54:19 13° NNE 16:56:42 10° NE
Cosmos 2333 Rocket 3.2 16:50:31 10° SSE 16:55:21 29° ESE 16:59:52 11° NE
Cosmos 2228 Rocket 3.3 16:51:15 10° SSW 16:55:49 81° WNW 17:00:26 10° N
Cosmos 1302 Rocket 4.0 16:51:22 10° NNW 16:56:39 62° ENE 17:01:51 10° SE
NOSS 2-2 (E) 3.5 16:53:17 10° SW 16:57:01 74° NW 17:01:15 12° NE
Okean-O 3.1 16:53:35 10° SE 16:57:40 38° ENE 17:01:47 10° N
Cosmos 1980 Rocket 3.8 16:52:53 10° W 16:57:47 28° NW 17:02:42 10° NNE
ATLAS 2AS CENTAUR R/B 3.2 16:50:32 10° SSW 16:58:24 66° SE 17:06:03 11° NE
BREEZE-M R/B 3.9 16:52:08 10° WSW 16:58:40 49° SSE 17:01:47 12° E
AQUARIUS 4.2 16:55:05 10° SSE 16:59:30 58° ENE 17:03:57 10° N
Feng Yun 1-1 Rocket 4.1 16:55:30 10° SSE 17:00:52 71° ENE 17:06:16 10° NNW
Cosmos 2279 Rocket 4.0 16:55:26 10° N 17:01:42 68° ENE 17:07:55 10° SSE
Cosmos 44 Rocket 4.1 16:59:10 10° NW 17:03:45 53° SW 17:08:19 10° SSE
Cosmos 1634 Rocket 4.2 16:57:41 10° NNW 17:03:53 79° W 17:10:04 10° S
Meteor 1-26 Rocket 4.3 16:58:33 10° S 17:04:26 89° ESE 17:10:11 10° NNE
Cosmos 2237 Rocket 3.7 17:07:23 10° SE 17:10:35 15° E 17:11:43 15° E
CZ-4 R/B 2.4 17:07:57 10° ESE 17:11:07 24° ENE 17:14:15 10° N
Cosmos 1536 3.8 17:08:15 10° NNE 17:11:39 25° ENE 17:15:00 10° SE
Cosmos 1812 3.9 17:11:00 10° SE 17:14:06 23° E 17:15:32 19° ENE
Cosmos 1844 4.2 17:08:28 10° NW 17:14:09 66° WSW 17:19:44 10° SSE
Radarsat 4.5 17:09:07 10° SSE 17:14:19 77° ENE 17:19:32 10° NNW
Cosmos 2322 Rocket 2.8 17:08:50 10° SW 17:14:20 54° NW 17:19:54 10° NNE
SL-16 R/B 3.1 17:13:31 10° WSW 17:18:58 46° NW 17:24:27 10° NNE
SeaSat 1 3.7 17:17:12 18° ENE 17:19:05 22° NE 17:22:51 10° NNW
Cosmos 1707 Rocket 3.6 17:17:49 10° S 17:22:13 63° E 17:26:40 10° NNE
Nadezhda 4 Rocket 4.4 17:20:31 10° SSE 17:26:22 41° E 17:32:14 10° NNE
Cosmos 2219 Rocket 2.5 17:24:53 10° S 17:30:14 48° ESE 17:34:06 19° NE
Envisat 2.9 17:25:34 10° SSE 17:30:35 66° ENE 17:35:40 10° N
USA 215 3.3 17:25:50 18° ENE 17:30:55 76° NNW 17:37:26 10° WSW
Lacrosse 5 rocket 3.2 17:28:47 10° SSE 17:31:20 16° SE 17:31:54 15° ESE
COSMOS 2455 3.5 17:25:43 10° WSW 17:31:35 52° NW 17:36:51 13° NNE
STARLINK-67 3.6 17:29:18 10° SW 17:31:51 33° SSE 17:32:26 29° ESE
SMAP 3.4 17:27:42 10° S 17:32:20 68° WSW 17:37:01 10° NNW
YAOGAN 3 4.5 17:28:13 10° SSE 17:32:34 75° ENE 17:36:57 10° NNW
ERBS 3.6 17:31:40 10° WNW 17:34:49 39° SW 17:37:58 10° SSE
Cosmos 1844 Rocket 4.2 17:29:52 10° NW 17:35:01 39° WSW 17:40:10 10° S
CENTAUR R/B 4.2 17:28:04 10° NW 17:35:40 50° WSW 17:43:53 10° SSE
Cosmos 2237 4.5 17:30:45 10° SW 17:36:30 71° NW 17:41:45 13° NNE
Cosmos 2297 4.5 17:31:45 10° NNW 17:36:50 31° NE 17:38:58 24° E
COSMO-SKYMED 1 3.3 17:35:38 26° ENE 17:37:06 32° E 17:41:00 10° SSE
Cosmos 1908 Rocket 4.1 17:33:04 10° N 17:37:08 34° ENE 17:41:09 10° SE
CORIOLIS 4.4 17:32:09 10° S 17:37:36 76° WSW 17:43:05 10° NNW
Cosmos 1500 3.0 17:36:14 10° N 17:40:02 67° ENE 17:43:47 10° SSE
SL-4 R/B 3.1 17:38:26 10° SSW 17:41:45 29° SE 17:42:51 25° ESE
H-2A R/B 3.5 17:38:38 10° S 17:42:16 53° W 17:45:55 10° NNW
Cosmos 304 Rocket 4.3 17:38:11 10° NNW 17:42:57 62° WSW 17:47:41 10° S
NOSS 2 (A) 4.5 17:40:55 10° NW 17:43:28 60° SW 17:44:14 35° SSE
Cosmos 1992 Rocket 3.9 17:39:46 10° NNW 17:44:59 63° ENE 17:50:10 10° SE
Cosmos 1340 4.5 17:41:55 10° NNW 17:45:22 33° W 17:48:47 10° SSW
Meteor 1-5 Rocket 4.2 17:40:59 10° NNW 17:46:41 85° W 17:52:08 10° S
NOSS 2-2 (D) 4.3 17:43:35 10° WSW 17:47:13 42° NNW 17:49:38 22° NNE
COSMOS 2428 2.7 17:41:53 10° SSW 17:47:28 62° ESE 17:51:04 23° NE
NOAA 12 4.2 17:42:41 10° SSE 17:48:01 80° WSW 17:53:21 10° NNW
Cosmos 1782 4.1 17:46:18 10° SW 17:50:05 41° WNW 17:53:54 10° N
YAOGAN 1 2.7 17:47:13 10° SE 17:51:22 47° ENE 17:55:32 10° N
Cosmos 1315 Rocket 3.5 17:48:34 10° SSW 17:52:28 54° WNW 17:56:26 10° N
Cosmos 292 Rocket 4.1 17:47:57 10° NNW 17:52:37 43° ENE 17:54:26 30° ESE
Cosmos 1943 Rocket 3.5 17:48:48 10° NNW 17:53:01 21° NNE 17:53:09 21° NE
FengYun 1-2 T 4.1 17:50:30 10° SSE 17:55:58 80° ENE 18:01:30 10° NNW
CSL-04 Rocket 3.6 17:52:14 10° SE 17:57:24 58° ENE 18:02:36 10° N
Cosmos 1733 Rocket 3.6 18:01:42 10° NNW 18:06:00 59° W 18:10:18 10° S
CSL-04 Debris 4.1 18:01:34 10° SSE 18:07:00 70° ENE 18:12:26 10° NNW
Meteor 2-6 Rocket 4.4 18:02:41 10° SSW 18:08:02 67° WNW 18:13:27 10° N
Cosmos 2333 4.4 18:02:44 10° SW 18:08:26 73° WNW 18:12:22 21° NNE
Transit 2A Rocket 4.4 18:06:17 10° SSW 18:10:49 81° SE 18:11:50 52° NE
NOSS 3-4 (A) 3.5 18:05:14 10° SW 18:11:19 78° NW 18:14:46 30° NE
NOSS 3-4 (C) 3.5 18:05:20 10° SW 18:11:25 79° NW 18:14:52 30° NE
Meteor 1-10 Rocket 4.4 18:06:30 10° SSW 18:12:01 71° WNW 18:17:39 10° N
YAOGAN 6 2.7 18:08:52 10° S 18:12:22 71° WSW 18:15:57 10° NNW
ATLAS 3B R/B 4.3 18:07:34 10° NW 18:13:27 33° WSW 18:19:27 10° S
Cosmos 2344 4.4 18:05:39 10° NW 18:13:46 47° NNE 18:18:31 31° ENE
Ariane Rocket 3.6 18:14:42 37° NE 18:14:42 37° NE 18:18:29 10° N
Cosmos 2322 4.2 18:08:32 10° SW 18:14:11 59° NW 18:18:04 20° NNE
BREEZE-M DEB (TANK) 3.2 18:11:24 10° WSW 18:15:20 33° S 18:15:46 31° S
ISS -3.0 18:13:05 10° W 18:16:20 46° SSW 18:16:28 46° SSW
Genesis I 4.3 18:14:30 10° NW 18:17:09 32° N 18:17:09 32° N
RESURS DK-1 2.2 18:15:17 10° SSW 18:19:24 77° ESE 18:19:34 76° E
Cosmos 2278 Rocket 2.6 18:17:51 10° NW 18:23:28 63° WSW 18:29:02 10° SSE
NOAA 11 4.0 18:18:51 10° SSE 18:24:17 72° ENE 18:29:45 10° NNW
Cosmos 1666 4.3 18:21:17 10° N 18:22:54 24° N 18:22:54 24° N
Cosmos 2195 Rocket 4.4 18:19:13 10° S 18:25:16 58° E 18:29:39 20° NNE
SKYMED 2 3.4 18:24:20 50° NNE 18:25:27 89° ESE 18:29:48 10° SSW
Cosmos 1092 Rocket 3.9 18:22:21 10° S 18:28:38 72° E 18:34:55 10° NNE
Cosmos 2242 Rocket 3.5 18:26:16 10° S 18:30:49 88° E 18:31:38 61° NNE
Meteor 1-27 Rocket 3.9 18:28:58 10° SSW 18:34:42 75° WNW 18:40:19 11° N
Cosmos 2360 Rocket 3.7 18:30:36 10° WSW 18:35:38 32° NW 18:39:12 17° N
Cosmos 2333 Rocket 2.6 18:33:34 10° SW 18:39:16 62° NW 18:41:54 32° NNE
SL-16 R/B 4.3 18:35:01 10° SSE 18:35:33 12° SSE 18:35:33 12° SSE
Cosmos 2369 Rocket 3.5 18:35:26 10° NNW 18:38:40 25° NNE 18:38:40 25° NNE
Cosmos 2251 Rocket 3.4 18:35:28 10° SSW 18:40:47 88° WNW 18:41:50 59° NNE
Cosmos 1862 Rocket 4.5 18:39:27 10° SSW 18:43:39 47° WNW 18:45:49 26° NNW
Cosmos 1980 Rocket 4.5 18:41:25 10° NW 18:43:51 13° NNW 18:45:53 11° N
H-2A R/B 4.3 18:49:28 12° N 18:49:28 12° N 18:49:54 10° N
CZ-4 R/B 2.6 18:42:15 10° S 18:45:59 40° W 18:49:40 10° NNW
NOSS 0 Rocket 3.8 18:41:05 10° SSW 18:47:19 84° ESE 18:48:39 58° NE
Cosmos 1536 4.3 18:44:27 10° NNW 18:48:11 36° W 18:51:51 10° SSW
Cosmos 1812 4.2 18:46:10 10° SW 18:49:45 35° WNW 18:50:40 30° NW
ATLAS 2AS CENTAUR R/B 3.6 18:41:57 10° WSW 18:49:49 53° NNW 18:53:29 32° NNE
Cosmos 2237 Rocket 2.1 18:48:02 10° SSW 18:53:36 78° SE 18:53:36 78° SE
SeaSat 1 2.7 18:57:00 59° NNW 18:57:00 59° NNW 19:01:01 10° NNW
Cosmos 2322 Rocket 4.3 18:55:58 10° WNW 18:59:43 18° NNW 19:02:14 14° N
Cosmos 1867 4.2 18:57:10 10° NW 19:01:14 45° N 19:01:14 45° N
SL-16 R/B 4.4 19:01:06 10° WNW 19:04:35 16° NNW 19:06:49 13° N
Lacrosse 5 rocket 3.3 19:05:47 10° SW 19:07:34 24° SW 19:07:34 24° SW
Cosmos 1553 Rocket 3.9 19:03:56 10° N 19:10:17 88° ENE 19:10:25 86° SE
Exosat Rocket 4.2 19:08:10 10° SW 19:13:14 49° NW 19:13:38 48° NW
COSMO-SKYMED 1 4.0 19:12:51 34° NW 19:13:17 34° WNW 19:17:13 10° SW
USA 215 3.4 19:13:11 57° NNE 19:13:39 58° N 19:20:02 10° WNW
Cosmos 2219 Rocket 3.3 19:09:06 10° WSW 19:14:21 39° NW 19:15:50 33° NNW
Cosmos 1428 Rocket 4.5 19:13:14 10° SSW 19:19:03 77° WSW 19:19:03 77° WSW
SL-4 R/B 4.3 19:17:04 10° WSW 19:18:28 21° WSW 19:18:28 21° WSW
Cosmos 2297 4.0 19:15:48 10° NW 19:20:57 63° W 19:20:57 63° W
Cosmos 1980 4.1 19:18:00 10° SW 19:22:58 60° W 19:22:58 60° W
COSMOS 2428 4.1 19:27:01 10° WSW 19:32:08 33° NW 19:33:06 31° NNW
Cosmos 2026 Rocket 4.4 19:28:38 10° SSW 19:34:36 57° WNW 19:35:15 54° NW
Cosmos 1943 Rocket 3.8 19:32:11 10° NNW 19:34:41 27° NNW 19:34:41 27° NNW
NOSS 3-1 (C) 4.4 19:45:00 10° NW 19:50:16 51° NNW 19:50:16 51° NNW
USA 229 DEB 4.5 19:50:55 10° NW 19:55:52 47° NNW 19:55:52 47° NNW
USA 229 4.5 19:51:01 10° NW 19:55:57 47° NNW 19:55:57 47° NNW
Cosmos 2333 Rocket 4.4 20:20:35 10° WNW 20:23:55 19° NW 20:23:55 19° NW
Cosmos 2344 4.3 20:20:16 10° NW 20:28:32 77° NW 20:28:32 77° NW
ATLAS 2AS CENTAUR R/B 4.3 20:35:15 10° WNW 20:40:55 33° NNW 20:40:55 33° NNW
